Weather History for Fitchburg, MA

Change the Weather History Date:

Sunday, June 15, 2014

  Actual Average (KORH) Record (KORH)
Temperature  
Mean Temperature 68 °F 65 °F  
Max Temperature 80 °F 74 °F 94 °F (1988)
Min Temperature 55 °F 56 °F 41 °F (1978)
Degree Days  
Heating Degree Days 0 3  
Month to date heating degree days 60  
Since 1 June heating degree days 60  
Since 1 July heating degree days 6694  
Cooling Degree Days 2 3  
Month to date cooling degree days 30  
Year to date cooling degree days 52  
Since 1 June cooling degree days 30  
Growing Degree Days 18 (Base 50)    
Moisture  
Dew Point 51 °F    
Average Humidity 59    
Maximum Humidity 80    
Minimum Humidity 37    
Precipitation  
Precipitation 0.00 in 0.14 in 1.87 in (1903)
Month to date precipitation 2.28  
Year to date precipitation 21.51  
Sea Level Pressure  
Sea Level Pressure 30.01 in    
Wind  
Wind Speed 9 mph (NW)    
Max Wind Speed 17 mph    
Max Gust Speed 25 mph    
Visibility 10 miles    
Events      
T = Trace of Precipitation, MM = Missing Value Source: NWS Daily Summary

Daily Weather History Graph

Daily Weather History Graph

Search for Another Location

Airport:

Trip Planner

Search our weather history database for the weather conditions in past years. The results will help you decide how hot, cold, wet, or windy it might be!

Date:

Astronomy

Jun. 15, 2014 Rise Set
Actual Time 5:08 AM EDT 8:26 PM EDT
Civil Twilight 4:34 AM EDT 9:01 PM EDT
Nautical Twilight 3:48 AM EDT 9:46 PM EDT
Astronomical Twilight 2:53 AM EDT 10:41 PM EDT
Moon 10:30 PM EDT (6/15) 8:01 AM EDT (6/15)
Length of Visible Light 16h 27m
Length of Day
15h 17m
Waning Gibbous, 91% of the Moon is Illuminated
Jun 15
Waning Gibbous
Jun 19
Last Quarter
Jun 27
New
Jul 5
First Quarter
Jul 12
Full

Hourly Weather History & Observations

Time (EDT) Temp. Heat Index Dew Point Humidity Pressure Visibility Wind Dir Wind Speed Gust Speed Precip Events Conditions
12:52 AM 55.9 °F - 50.0 °F 80% 29.94 in 10.0 mi NW 3.5 mph - N/A   Partly Cloudy
1:52 AM 57.0 °F - 50.0 °F 77% 29.94 in 10.0 mi WNW 6.9 mph - N/A   Clear
2:52 AM 55.9 °F - 50.0 °F 80% 29.95 in 10.0 mi WNW 9.2 mph - N/A   Clear
3:52 AM 57.0 °F - 50.0 °F 77% 29.95 in 10.0 mi WNW 9.2 mph - N/A   Mostly Cloudy
4:52 AM 57.0 °F - 50.0 °F 77% 29.95 in 10.0 mi NW 9.2 mph - N/A   Clear
5:52 AM 59.0 °F - 51.1 °F 75% 29.98 in 10.0 mi NNW 8.1 mph - N/A   Clear
6:52 AM 62.1 °F - 52.0 °F 70% 30.01 in 10.0 mi NW 9.2 mph - N/A   Clear
7:52 AM 64.0 °F - 51.1 °F 63% 30.01 in 10.0 mi NW 15.0 mph 21.9 mph N/A   Clear
8:52 AM 66.9 °F - 51.1 °F 57% 30.02 in 10.0 mi NNW 13.8 mph 25.3 mph N/A   Clear
9:52 AM 70.0 °F - 51.1 °F 51% 30.02 in 10.0 mi NW 11.5 mph 19.6 mph N/A   Clear
10:52 AM 73.0 °F - 52.0 °F 48% 30.01 in 10.0 mi NW 17.3 mph 21.9 mph N/A   Clear
11:52 AM 75.0 °F - 53.1 °F 46% 30.01 in 10.0 mi North 13.8 mph - N/A   Partly Cloudy
12:52 PM 75.9 °F - 53.1 °F 45% 30.01 in 10.0 mi NNW 12.7 mph 20.7 mph N/A   Clear
1:52 PM 78.1 °F - 53.1 °F 42% 30.00 in 10.0 mi NNW 15.0 mph 24.2 mph N/A   Clear
2:52 PM 78.1 °F - 54.0 °F 43% 30.00 in 10.0 mi NW 10.4 mph - N/A   Clear
3:52 PM 80.1 °F 79.9 °F 53.1 °F 39% 30.01 in 10.0 mi NNW 15.0 mph - N/A   Partly Cloudy
5:52 PM 78.1 °F - 50.0 °F 37% 30.01 in 10.0 mi NW 11.5 mph 20.7 mph N/A   Clear
6:52 PM 75.9 °F - 52.0 °F 43% 30.01 in 10.0 mi NNW 11.5 mph - N/A   Clear
7:52 PM 73.0 °F - 51.1 °F 46% 30.03 in 10.0 mi NW 9.2 mph - N/A   Clear
8:52 PM 68.0 °F - 52.0 °F 56% 30.05 in 10.0 mi NNW 3.5 mph - N/A   Clear
9:52 PM 64.9 °F - 52.0 °F 63% 30.08 in 10.0 mi NNW 6.9 mph - N/A   Clear
10:52 PM 61.0 °F - 51.1 °F 70% 30.09 in 10.0 mi North 4.6 mph - N/A   Clear
11:52 PM 59.0 °F - 48.0 °F 67% 30.09 in 10.0 mi NNW 3.5 mph - N/A   Clear